FENGYUN 3F

Last updated on Thu Nov 21 2024 00:02:20 GMT+0000 (Coordinated Universal Time)

1 57490U 23111A 24325.53013910 .00000196 00000+0 11322-3 0 9998 2 57490 98.7537 33.0980 0001293 54.8976 305.2322 14.19940661 67453
UTC large
Height (km)
Speed (km/s)
/
Latitude / Longitude
Inclination (degrees)
Orbital Period (minutes)
Azimuth
Elevation
Range (km)
Doppler Factor

Next 0 passes for location: London (51.5072 / 0.1276)

Sorry there are no passes over London.